TimePST,TemperatureF,Dew PointF,Humidity,Sea Level PressureIn,VisibilityMPH,Wind Direction,Wind SpeedMPH,Gust SpeedMPH,PrecipitationIn,Events,Conditions,WindDirDegrees,DateUTC
12:53 AM,46.9,42.1,83,30.00,10.0,West,3.5,-,0.02,,Overcast,260,2012-12-05 08:53:00
1:53 AM,48.0,41.0,77,30.04,10.0,WSW,6.9,-,0.00,Rain,Light Rain,250,2012-12-05 09:53:00
2:53 AM,46.0,39.9,79,30.07,10.0,NW,3.5,-,0.00,,Mostly Cloudy,310,2012-12-05 10:53:00
3:53 AM,45.0,41.0,86,30.10,10.0,Calm,Calm,-,0.00,,Mostly Cloudy,0,2012-12-05 11:53:00
4:53 AM,42.1,39.0,89,30.12,10.0,Calm,Calm,-,0.01,,Overcast,0,2012-12-05 12:53:00
6:53 AM,39.0,37.0,93,30.17,10.0,Calm,Calm,-,N/A,,Clear,0,2012-12-05 14:53:00
7:53 AM,36.0,34.0,93,30.19,7.0,Calm,Calm,-,N/A,,Clear,0,2012-12-05 15:53:00
8:53 AM,39.0,37.0,93,30.20,9.0,Calm,Calm,-,N/A,,Clear,0,2012-12-05 16:53:00
9:53 AM,45.0,39.9,82,30.22,10.0,Calm,Calm,-,N/A,,Clear,0,2012-12-05 17:53:00
10:53 AM,45.0,39.9,82,30.23,10.0,Calm,Calm,-,N/A,,Clear,0,2012-12-05 18:53:00
11:53 AM,48.9,41.0,74,30.23,10.0,Calm,Calm,-,N/A,,Clear,0,2012-12-05 19:53:00
12:53 PM,48.9,37.9,66,30.23,10.0,Calm,Calm,-,N/A,,Clear,0,2012-12-05 20:53:00
1:53 PM,50.0,37.0,61,30.22,10.0,Calm,Calm,-,N/A,,Partly Cloudy,0,2012-12-05 21:53:00
2:53 PM,50.0,36.0,59,30.21,10.0,Calm,Calm,-,N/A,,Clear,0,2012-12-05 22:53:00
3:53 PM,48.0,39.0,71,30.23,10.0,West,10.4,-,N/A,,Overcast,260,2012-12-05 23:53:00
4:53 PM,46.0,39.0,76,30.23,10.0,Calm,Calm,-,0.00,,Overcast,0,2012-12-06 00:53:00
5:53 PM,43.0,39.9,89,30.23,10.0,Calm,Calm,-,N/A,,Overcast,0,2012-12-06 01:53:00
6:53 PM,42.1,39.0,89,30.23,10.0,Calm,Calm,-,N/A,,Mostly Cloudy,0,2012-12-06 02:53:00
7:53 PM,37.9,36.0,93,30.25,10.0,Calm,Calm,-,N/A,,Partly Cloudy,0,2012-12-06 03:53:00
8:53 PM,39.9,37.9,93,30.25,10.0,Calm,Calm,-,N/A,,Overcast,0,2012-12-06 04:53:00
9:53 PM,39.9,37.9,93,30.25,10.0,Calm,Calm,-,N/A,,Overcast,0,2012-12-06 05:53:00
10:53 PM,42.1,39.0,89,30.25,10.0,Calm,Calm,-,N/A,,Clear,0,2012-12-06 06:53:00
11:53 PM,39.9,37.0,89,30.24,10.0,Calm,Calm,-,N/A,,Clear,0,2012-12-06 07:53:00